Regional Weather Roundup
Issued by NWS Newport/Morehead, NC

Current Version | Previous Version | Graphics & Text | Print | Product List | Glossary On
Versions: 1 2 3 4 5 6 7 8 9 10 11 12 13 14 15 16 17 18 19 20 21 22 23 24 25 26 27 28 29 30 31 32 33 34 35 36 37 38 39 40 41 42 43 44 45 46 47 48 49 50
000
ASUS42 KMHX 050324
RWRMHX
WEATHER ROUNDUP FOR EASTERN NORTH CAROLINA
NATIONAL WEATHER SERVICE NEWPORT/MOREHEAD CITY NC
1100 PM EDT MON MAY 04 2015

NOTE: "FAIR" INDICATES FEW OR NO CLOUDS BELOW 12,000 FEET
WITH NO SIGNIFICANT WEATHER AND/OR OBSTRUCTIONS TO VISIBILITY

NCZ015>017-031-032-045>047-102-103-050400-
NORTH COAST

CITY           SKY/WX    TMP DP  RH WIND       PRES   REMARKS
EDENTON        CLEAR     66  54  66 S7        30.33S
ELIZABETH CITY CLEAR     67  52  58 S8        30.32S
KITTY HAWK     CLEAR     65  55  69 SW6       30.33S
MANTEO         CLEAR     64  58  80 SW8       30.34S

$$

NCZ045>047-081-094-103-104-050400-
CENTRAL COAST

CITY           SKY/WX    TMP DP  RH WIND       PRES   REMARKS
FRISCO         CLEAR     64  56  75 SW7       30.35S
SWANQUARTER      N/A     66 N/A N/A S8        30.33S

$$

NCZ095-097-098-100-101-050400-
SOUTHERN COAST

CITY           SKY/WX    TMP DP  RH WIND       PRES   REMARKS
BEAUFORT       CLEAR     66  56  70 S6        30.36R
CEDAR ISLAND     N/A     66 N/A N/A S5G10     30.39S
JACKSONVILLE   CLEAR     59  56  89 CALM      30.35R
PINEY ISLAND   CLEAR    N/A N/A N/A SW6       30.35S
WILMINGTON     CLEAR     60  55  83 CALM      30.35R


$$

NCZ011>013-027>030-043-044-078>080-089-090>093-098-050400-
COASTAL PLAIN

CITY           SKY/WX    TMP DP  RH WIND       PRES   REMARKS
AHOSKIE        CLEAR     66  52  60 S6        30.32R
CLINTON        CLEAR     64  55  73 CALM      30.35S
ELIZABETHTOWN  CLEAR     61  54  78 CALM      30.35S
GOLDSBORO      CLEAR     66  51  59 S2        30.32R
GREENVILLE     CLEAR     64  52  63 SW8       30.34S
HAVELOCK       CLEAR     61  56  83 S3        30.36R
KENANSVILLE    CLEAR     60  53  77 CALM      30.36S
KINSTON        CLEAR     65  52  64 S6        30.35S
NEW BERN       CLEAR     58  53  84 CALM      30.36R
RICHLANDS      CLEAR     55  50  82 CALM      30.36S
ROCKY MOUNT    CLEAR     67  53  61 S7        30.32R
WASHINGTON     CLEAR     64  53  66 S5        30.34S
WHITEVILLE     CLEAR     59  55  87 CALM      30.34S

$$

AMZ130-135-150-152-154-156-158-170-250-252-270-ANZ085-086-088-633-658-670-050400-
MARINE OBSERVATIONS

STATION/POSITION TIME  TEMP    WIND        PRES    WAVE   SWELL
                       AIR SEA DIR/SP/G            HT/PER HT/PER
                 (UTC) (F)     (DEG/KT/KT) (MB)    (FT/S) (FT/S)
CHESAPEAKE LIGHT 0300   64     200/ 20/ 20 1026.2
64 E VA BEACH    0250   64 62  200/ 14/ 16 1026.3    3/11   3/11
DUCK             0300   67 53  200/ 10/ 14 1026.0
2 E DUCK         0211      58                N/A     2/10   2/11
OREGON INLET     0300   66 70  190/  7/  9 1027.4
13E OREGON INLT  0300      60                N/A     2/13   2/13
HATTERAS CG      0300   68 66  200/  5/  7 1027.3
DIAMOND BUOY     0250   74 77  190/ 14/ 17 1027.7    3/12   3/12
CAPE LOOKOUT     0300   68     180/  6/  6 1027.8
BEAUFORT LAB     0300   67 66  190/  3/  4 1027.2
27 SE WRIGHTSVLE 0300   70 72  170/ 10/ 12   N/A
5 SE WRIGHTSVLE  0208   70 69  170/  8/ 10 1027.3
225 S CAPE HAT   0250   69 70  110/ 14/ 16 1027.8    5/ 9   3/ 9
41 SE CHARLESTON 0250   73 74  100/ 14/ 17 1026.3    4/ 5   2/ 8

$$



USA.gov is the U.S. government's official web portal to all federal, state and local government web resources and services.